When you browse on this site, cookies collect data to enhance your experience and personalize the content and advertising you see.
Visit our Privacy Policy to learn more. By continuing to use the site, you agree to this use of cookies and data.
  • In United Kingdom
  • List of Countries
  • For 7 days
  • Water Temperature
  • Satellite Maps
  • Weather Map
  • Weather Widgets
  • user-avatar
    Login

    Hourly Weather Birkenhead

    Today, 20 May, Monday

    Time Temperature Precipitation Wind Pressure Humidity
    00:00 +9°C° 0 mm 2 mps 758 mmHg 91%
    01:00 +9°C° 0 mm 2 mps 757 mmHg 92%
    02:00 +9°C° 0 mm 2 mps 757 mmHg 92%
    03:00 +9°C° 0 mm 2 mps 757 mmHg 93%
    04:00 +9°C° 0 mm 2 mps 758 mmHg 91%
    05:00 +10°C° 0 mm 2 mps 758 mmHg 90%
    06:00 +12°C° 0 mm 2 mps 758 mmHg 88%
    07:00 +13°C° 0 mm 2 mps 758 mmHg 83%
    08:00 +13°C° 0 mm 3 mps 758 mmHg 77%
    09:00 +14°C° 0 mm 3 mps 758 mmHg 71%
    10:00 +14°C° 0 mm 4 mps 758 mmHg 70%
    11:00 +14°C° 0 mm 4 mps 758 mmHg 68%
    12:00 +14°C° 0 mm 4 mps 759 mmHg 66%
    13:00 +14°C° 0 mm 4 mps 758 mmHg 65%
    14:00 +15°C° 0 mm 4 mps 758 mmHg 64%
    15:00 +15°C° 0 mm 4 mps 758 mmHg 63%
    16:00 +14°C° 0 mm 4 mps 758 mmHg 65%
    17:00 +14°C° 0 mm 4 mps 759 mmHg 67%
    18:00 +13°C° 0 mm 4 mps 759 mmHg 69%
    19:00 +12°C° 0 mm 4 mps 759 mmHg 73%
    20:00 +11°C° 0 mm 3 mps 760 mmHg 78%
    21:00 +10°C° 0 mm 3 mps 760 mmHg 82%
    22:00 +10°C° 0 mm 3 mps 760 mmHg 84%
    23:00 +10°C° 0 mm 3 mps 760 mmHg 86%

    Tomorrow, 21 May, Tuesday

    Time Temperature Precipitation Wind Pressure Humidity
    00:00 +9°C° 0 mm 3 mps 761 mmHg 88%
    01:00 +9°C° 0 mm 3 mps 761 mmHg 90%
    02:00 +9°C° 0 mm 3 mps 761 mmHg 91%
    03:00 +9°C° 0 mm 3 mps 761 mmHg 92%
    04:00 +9°C° 0 mm 3 mps 761 mmHg 90%
    05:00 +10°C° 0 mm 4 mps 761 mmHg 89%
    06:00 +10°C° 0 mm 4 mps 761 mmHg 87%
    07:00 +11°C° 0 mm 4 mps 762 mmHg 82%
    08:00 +12°C° 0 mm 4 mps 762 mmHg 76%
    09:00 +13°C° 0 mm 5 mps 762 mmHg 71%
    10:00 +14°C° 0 mm 5 mps 762 mmHg 68%
    11:00 +14°C° 0 mm 5 mps 762 mmHg 64%
    12:00 +15°C° 0 mm 5 mps 762 mmHg 61%
    13:00 +15°C° 0 mm 5 mps 762 mmHg 59%
    14:00 +15°C° 0 mm 5 mps 762 mmHg 58%
    15:00 +15°C° 0 mm 5 mps 762 mmHg 56%
    16:00 +14°C° 0 mm 4 mps 762 mmHg 59%
    17:00 +14°C° 0 mm 4 mps 762 mmHg 61%
    18:00 +13°C° 0 mm 4 mps 762 mmHg 63%
    19:00 +12°C° 0 mm 3 mps 762 mmHg 68%
    20:00 +11°C° 0 mm 3 mps 763 mmHg 72%
    21:00 +10°C° 0 mm 2 mps 763 mmHg 77%
    22:00 +9°C° 0 mm 2 mps 763 mmHg 78%
    23:00 +9°C° 0 mm 2 mps 763 mmHg 80%

    Day after tomorrow, 22 May, Wednesday

    Time Temperature Precipitation Wind Pressure Humidity
    00:00 +9°C° 0 mm 2 mps 763 mmHg 81%
    01:00 +9°C° 0 mm 2 mps 763 mmHg 80%
    02:00 +9°C° 0 mm 2 mps 763 mmHg 80%
    03:00 +10°C° 0 mm 1 mps 763 mmHg 79%
    04:00 +10°C° 0.1 mm 1 mps 763 mmHg 80%
    05:00 +10°C° 0.1 mm 1 mps 763 mmHg 80%
    06:00 +11°C° 0.1 mm 1 mps 763 mmHg 80%
    07:00 +11°C° 0.1 mm 1 mps 763 mmHg 79%
    08:00 +12°C° 0.1 mm 1 mps 763 mmHg 77%
    09:00 +11°C° 0.1 mm 0 mps 763 mmHg 75%
    10:00 +14°C° 0 mm 1 mps 763 mmHg 68%
    11:00 +16°C° 0 mm 1 mps 763 mmHg 61%
    12:00 +19°C° 0 mm 1 mps 762 mmHg 54%
    13:00 +19°C° 0 mm 1 mps 762 mmHg 54%
    14:00 +18°C° 0 mm 2 mps 762 mmHg 53%
    15:00 +18°C° 0 mm 3 mps 762 mmHg 52%
    16:00 +17°C° 0 mm 3 mps 761 mmHg 54%
    17:00 +17°C° 0 mm 3 mps 761 mmHg 56%
    18:00 +16°C° 0 mm 3 mps 761 mmHg 57%
    19:00 +15°C° 0 mm 2 mps 761 mmHg 61%
    20:00 +13°C° 0 mm 2 mps 761 mmHg 64%
    21:00 +12°C° 0 mm 1 mps 761 mmHg 68%
    22:00 +10°C° 0 mm 2 mps 761 mmHg 69%
    23:00 +10°C° 0 mm 2 mps 761 mmHg 70%

    23 May, Thursday

    Time Temperature Precipitation Wind Pressure Humidity
    00:00 +9°C° 0 mm 2 mps 761 mmHg 71%
    01:00 +9°C° 0 mm 2 mps 761 mmHg 70%
    02:00 +9°C° 0 mm 2 mps 761 mmHg 70%
    03:00 +8°C° 0 mm 2 mps 761 mmHg 69%
    04:00 +9°C° 0 mm 2 mps 761 mmHg 69%
    05:00 +9°C° 0 mm 2 mps 761 mmHg 69%
    06:00 +10°C° 0 mm 2 mps 761 mmHg 69%
    07:00 +13°C° 0 mm 2 mps 760 mmHg 64%
    08:00 +14°C° 0 mm 2 mps 760 mmHg 60%
    09:00 +16°C° 0 mm 2 mps 760 mmHg 55%
    10:00 +16°C° 0 mm 2 mps 760 mmHg 56%
    11:00 +17°C° 0 mm 2 mps 760 mmHg 56%
    12:00 +18°C° 0 mm 3 mps 760 mmHg 56%
    13:00 +18°C° 0 mm 2 mps 760 mmHg 57%
    14:00 +18°C° 0 mm 2 mps 759 mmHg 58%
    15:00 +18°C° 0 mm 2 mps 759 mmHg 59%
    16:00 +17°C° 0.1 mm 2 mps 759 mmHg 66%
    17:00 +16°C° 0.1 mm 2 mps 759 mmHg 73%
    18:00 +15°C° 0.1 mm 2 mps 759 mmHg 80%
    19:00 +14°C° 0 mm 2 mps 759 mmHg 82%
    20:00 +14°C° 0 mm 2 mps 759 mmHg 84%
    21:00 +13°C° 0 mm 2 mps 759 mmHg 85%
    22:00 +13°C° 0 mm 2 mps 759 mmHg 87%
    23:00 +12°C° 0 mm 3 mps 758 mmHg 88%

    24 May, Friday

    Time Temperature Precipitation Wind Pressure Humidity
    00:00 +11°C° 0 mm 3 mps 758 mmHg 90%
    01:00 +11°C° 0.4 mm 3 mps 758 mmHg 91%
    02:00 +12°C° 0.4 mm 3 mps 758 mmHg 92%
    03:00 +12°C° 0.4 mm 3 mps 758 mmHg 93%
    04:00 +12°C° 0.8 mm 3 mps 758 mmHg 93%
    05:00 +12°C° 0.8 mm 3 mps 758 mmHg 93%
    06:00 +12°C° 0.8 mm 3 mps 758 mmHg 92%
    07:00 +12°C° 0.2 mm 4 mps 758 mmHg 89%
    08:00 +13°C° 0.2 mm 5 mps 758 mmHg 85%
    09:00 +14°C° 0.2 mm 5 mps 758 mmHg 82%
    10:00 +14°C° 0 mm 5 mps 758 mmHg 77%
    11:00 +15°C° 0 mm 5 mps 758 mmHg 72%
    12:00 +16°C° 0 mm 5 mps 758 mmHg 68%
    13:00 +16°C° 0 mm 5 mps 758 mmHg 68%
    14:00 +16°C° 0 mm 5 mps 758 mmHg 67%
    15:00 +16°C° 0 mm 5 mps 758 mmHg 67%
    16:00 +15°C° 0 mm 5 mps 758 mmHg 69%
    17:00 +15°C° 0 mm 4 mps 759 mmHg 70%
    18:00 +15°C° 0 mm 4 mps 759 mmHg 72%
    19:00 +14°C° 0 mm 4 mps 759 mmHg 76%
    20:00 +13°C° 0 mm 3 mps 759 mmHg 80%
    21:00 +12°C° 0 mm 3 mps 760 mmHg 84%
    22:00 +12°C° 0 mm 3 mps 760 mmHg 85%
    23:00 +12°C° 0 mm 2 mps 760 mmHg 87%

    25 May, Saturday

    Time Temperature Precipitation Wind Pressure Humidity
    00:00 +12°C° 0 mm 2 mps 760 mmHg 88%
    01:00 +12°C° 0 mm 2 mps 760 mmHg 88%
    02:00 +13°C° 0 mm 2 mps 759 mmHg 88%
    03:00 +13°C° 0 mm 1 mps 759 mmHg 88%
    04:00 +13°C° 0.2 mm 1 mps 759 mmHg 89%
    05:00 +13°C° 0.2 mm 1 mps 759 mmHg 90%
    06:00 +13°C° 0.2 mm 1 mps 759 mmHg 92%
    07:00 +14°C° 0.1 mm 1 mps 759 mmHg 90%
    08:00 +15°C° 0.1 mm 1 mps 759 mmHg 89%
    09:00 +15°C° 0.1 mm 1 mps 759 mmHg 88%
    10:00 +16°C° 0.1 mm 1 mps 759 mmHg 86%
    11:00 +16°C° 0.1 mm 2 mps 759 mmHg 85%
    12:00 +16°C° 0.1 mm 2 mps 759 mmHg 83%
    13:00 +17°C° 0 mm 3 mps 759 mmHg 79%
    14:00 +17°C° 0 mm 4 mps 759 mmHg 74%
    15:00 +18°C° 0 mm 4 mps 759 mmHg 70%
    16:00 +17°C° 0 mm 4 mps 759 mmHg 70%
    17:00 +17°C° 0 mm 4 mps 759 mmHg 70%
    18:00 +15°C° 0 mm 4 mps 760 mmHg 70%
    19:00 +14°C° 0 mm 3 mps 760 mmHg 73%
    20:00 +13°C° 0 mm 3 mps 760 mmHg 77%
    21:00 +12°C° 0 mm 3 mps 761 mmHg 80%
    22:00 +13°C° 0 mm 2 mps 761 mmHg 82%
    23:00 +13°C° 0 mm 2 mps 761 mmHg 83%
    Show more